[[{"header":{"parameterUnit":"m.s-1","parameterCategory":1,"la1":30.2991,"la2":30.254,"lo1":-89.0895,"lo2":-89.0444,"dy":0.0017,"dx":0.0017,"nx":28,"ny":28,"refTime":"2024-02-26T09:00:00:Z","depth":0,"parameterNumber":2,"parameterNumberName":"U-component_of_WINDS"},"data":[0,0,0,0,0,0,0,0,0,0,0,0,0,0,0,0,0,0,0,0,0,0,0,0,0,0,0,0,0,0,0,0,0,0,0,0,0,0,0,0,0,0,0,0,0,0,0,0,0,0,0,0,0,0,0,0,0,0,0.0889,0.0887,0,0.0758,0.0757,0.0755,0.0629,0.0628,0.0626,0.0624,0.0496,0.0494,0.0492,0,0,0,0,0,0,0,0,0,0,0,0,0,0.1034,0.1032,0.0889,0.0887,0.0886,0.0758,0.0757,0.0755,0.0629,0.0627,0.0625,0.0624,0.0496,0.0494,0.0492,0,0,0,0,0,0,0,0,0,0,0,0,0,0.0944,0.1031,0.0889,0.0808,0.0799,0.0759,0.0756,0.0754,0.063,0.0627,0.0625,0.0623,0.0497,0.0494,0.0491,0.0523,0,0,0.0483,0.0481,0,0,0,0,0,0,0,0,0.0949,0.0939,0.0821,0.0813,0.0803,0.0707,0.076,0.0677,0.063,0.0694,0.0624,0.0621,0.0568,0.0559,0.054,0.0517,0.0511,0.0482,0.0481,0.0479,0.0478,0,0,0,0,0,0,0,0.0956,0.0944,0.0837,0.082,0.0809,0.0779,0.0763,0.0744,0.0647,0.0688,0.0679,0.0665,0.0563,0.0544,0.0536,0.0509,0.0482,0.048,0.0478,0.0477,0.0505,0.0508,0,0,0,0,0,0,0.0974,0.095,0.0841,0.0833,0.0872,0.0778,0.0761,0.0741,0.0647,0.063,0.0667,0.066,0.055,0.054,0.0532,0.0563,0.0479,0.0477,0.0475,0.0503,0.0506,0.0509,0,0,0,0,0,0,0.0977,0.0965,0.0847,0.0889,0.0871,0.0778,0.0757,0.0739,0.072,0.063,0.0613,0.0665,0.0547,0.0536,0.0526,0.0557,0.0475,0.0473,0.05,0.0504,0.0507,0.0626,0,0,0,0,0,0,0.0982,0.0967,0.0977,0.089,0.087,0.0842,0.0758,0.0739,0.0715,0.0703,0.0624,0.0608,0.0544,0.0531,0.0523,0.0551,0.0471,0.0497,0.0502,0.0506,0.0619,0.0634,0.0646,0,0,0,0,0,0.0988,0.1017,0.0979,0.0966,0.088,0.0844,0.0833,0.0757,0.0718,0.0728,0.067,0.0611,0.0554,0.0531,0.0521,0.0549,0.0495,0.05,0.0506,0.0613,0.0631,0.0646,0,0,0,0,0,0,0.1112,0.1004,0.096,0.0962,0.0913,0.0823,0.0833,0.0778,0.0741,0.0732,0.0642,0.0625,0.0626,0.0586,0.0562,0.0575,0.0516,0.052,0.0601,0.0617,0.063,0.0641,0.0468,0,0,0,0,0,0.1139,0.1118,0.1025,0.1036,0.1013,0.0928,0.0909,0.0855,0.0802,0.0781,0.0723,0.0674,0.0645,0.0629,0.0597,0.0612,0.0594,0.0626,0.064,0.0651,0.0657,0.0663,0.0677,0.0527,0.0527,0.0527,0,0,0.1197,0.1135,0.1127,0.1059,0.1015,0.0996,0.0911,0.0895,0.0881,0.0779,0.0766,0.0722,0.0661,0.0665,0.0663,0.0631,0.0694,0.0658,0.0668,0.0667,0.067,0.0685,0.0697,0.0531,0.053,0.0529,0,0,0.1291,0.1241,0.1245,0.1202,0.1136,0.1079,0.108,0.0997,0.0964,0.0949,0.0872,0.0854,0.0806,0.0767,0.0741,0.082,0.0765,0.0812,0.0883,0.0891,0.0903,0.0913,0.0943,0.0955,0.0817,0.0818,0.0818,0,0.1371,0.1338,0.1255,0.1243,0.1216,0.112,0.1125,0.1088,0.1015,0.1,0.0964,0.0902,0.0855,0.0848,0.0868,0.0849,0.0849,0.0822,0.0907,0.0916,0.0925,0.0953,0.0964,0.0824,0.0823,0.0823,0.0822,0,0.1441,0.142,0.1431,0.1362,0.1336,0.1332,0.1249,0.1233,0.1181,0.1128,0.1115,0.1055,0.101,0.1004,0.0953,0.099,0.0973,0.0924,0.0863,0.0947,0.0972,0.0982,0.0833,0.0831,0.0829,0.0827,0,0,0.1613,0.1496,0.1502,0.147,0.1389,0.1372,0.1364,0.1319,0.1308,0.126,0.1254,0.1214,0.1168,0.1139,0.1083,0.1089,0.1158,0.1039,0.1036,0.1065,0.1197,0.1237,0.125,0.1119,0.1121,0.1122,0.1203,0,0.1695,0.1675,0.1599,0.1603,0.1583,0.1491,0.1485,0.1436,0.1386,0.1363,0.1308,0.1283,0.1223,0.1204,0.1206,0.1149,0.1184,0.1142,0.1114,0.1114,0.1135,0.1263,0.1304,0.1384,0.1212,0.1213,0.1215,0,0.179,0.1748,0.1749,0.1669,0.1658,0.1654,0.1606,0.1584,0.1527,0.149,0.1457,0.1394,0.1383,0.1324,0.1308,0.1282,0.1266,0.1236,0.1237,0.1234,0.1172,0.1266,0.1407,0.142,0.1229,0.1228,0.1227,0,0.1918,0.1862,0.1855,0.183,0.1736,0.1736,0.1697,0.1636,0.1614,0.1573,0.1558,0.1516,0.1494,0.1464,0.1392,0.1356,0.1385,0.1321,0.1357,0.1359,0.1369,0.137,0.1513,0.1355,0.1355,0.1355,0.1354,0,0.202,0.2025,0.1911,0.1908,0.1911,0.1824,0.183,0.1782,0.1729,0.1716,0.1634,0.1624,0.1528,0.1507,0.145,0.1447,0.1437,0.1409,0.1394,0.1418,0.1422,0.1408,0.1402,0.1358,0.1357,0.1356,0.1356,0,0.2165,0.2089,0.2076,0.1988,0.1966,0.1972,0.1897,0.1891,0.1835,0.182,0.1811,0.1725,0.1696,0.162,0.1572,0.1534,0.1547,0.1518,0.1567,0.1558,0.1599,0.1597,0.174,0.1755,0.1586,0.1588,0.1589,0,0.2237,0.2238,0.215,0.2134,0.2099,0.2075,0.2051,0.1965,0.1944,0.1879,0.1881,0.1845,0.1812,0.1771,0.1705,0.1668,0.1639,0.1691,0.1633,0.1657,0.1643,0.1645,0.1645,0.1705,0.1707,0.1709,0.1711,0,0.2373,0.2335,0.2303,0.2259,0.2233,0.2194,0.2151,0.2143,0.2047,0.2028,0.1996,0.1971,0.1921,0.1887,0.184,0.1801,0.1741,0.1729,0.1736,0.1761,0.179,0.1778,0.1604,0.1727,0.1725,0.1724,0.1723,0.1723,0.2484,0.2482,0.242,0.2388,0.2346,0.2307,0.2297,0.224,0.2212,0.2164,0.2115,0.2089,0.2032,0.1961,0.1927,0.1907,0.1875,0.1885,0.1887,0.1892,0.1903,0.1791,0.1897,0.1897,0.1896,0.1896,0.1895,0,0.2618,0.2573,0.2544,0.2486,0.2462,0.2404,0.2353,0.2337,0.2315,0.2266,0.2235,0.22,0.2167,0.2097,0.2058,0.2056,0.2027,0.2049,0.2049,0.2042,0.1933,0.1932,0.2072,0.2072,0.2072,0.2072,0.2072,0.2072,0.2685,0.2678,0.2633,0.2605,0.256,0.2534,0.251,0.2475,0.2435,0.2399,0.237,0.2325,0.2268,0.2224,0.2191,0.2172,0.2163,0.2194,0.2166,0.2066,0.2049,0.2033,0.2032,0.2191,0.2192,0.2277,0.2277,0.2278]},{"header":{"parameterUnit":"m.s-1","parameterCategory":1,"la1":30.2991,"la2":30.254,"lo1":-89.0895,"lo2":-89.0444,"dy":0.0017,"dx":0.0017,"nx":28,"ny":28,"refTime":"2024-02-26T09:00:00:Z","depth":0,"parameterNumber":3,"parameterNumberName":"V-component_of_WINDS"},"data":[0,0,0,0,0,0,0,0,0,0,0,0,0,0,0,0,0,0,0,0,0,0,0,0,0,0,0,0,0,0,0,0,0,0,0,0,0,0,0,0,0,0,0,0,0,0,0,0,0,0,0,0,0,0,0,0,0,0,4.3263,4.3264,0,4.3362,4.3364,4.3365,4.3374,4.3373,4.3372,4.3371,4.3476,4.3479,4.3483,0,0,0,0,0,0,0,0,0,0,0,0,0,4.3084,4.3088,4.3262,4.3264,4.3265,4.3362,4.3364,4.3365,4.3374,4.3373,4.3372,4.337,4.3474,4.3479,4.3483,0,0,0,0,0,0,0,0,0,0,0,0,0,4.3171,4.3089,4.3262,4.3281,4.3284,4.3362,4.3364,4.3365,4.3375,4.3373,4.3371,4.337,4.3473,4.3478,4.3484,4.3551,0,0,4.3501,4.3504,0,0,0,0,0,0,0,0,4.3166,4.3177,4.3277,4.328,4.3283,4.3354,4.3339,4.3428,4.3375,4.334,4.3371,4.3369,4.3437,4.3445,4.3468,4.3556,4.356,4.3502,4.3505,4.3508,4.3509,0,0,0,0,0,0,0,4.316,4.3173,4.3302,4.3279,4.3282,4.3286,4.3297,4.3356,4.3396,4.3343,4.3344,4.3356,4.3438,4.3462,4.347,4.3562,4.3502,4.3507,4.351,4.3512,4.3712,4.3714,0,0,0,0,0,0,4.315,4.3168,4.3299,4.3305,4.3219,4.3291,4.3303,4.3333,4.3396,4.3404,4.3357,4.3356,4.3453,4.3463,4.3474,4.3558,4.3508,4.3513,4.3516,4.3711,4.3713,4.3715,0,0,0,0,0,0,4.3146,4.3161,4.3295,4.3237,4.3254,4.3296,4.333,4.3336,4.336,4.3406,4.3413,4.3374,4.3452,4.3466,4.3532,4.3562,4.3516,4.3521,4.3708,4.3711,4.3714,4.3725,0,0,0,0,0,0,4.3141,4.316,4.3185,4.3237,4.3257,4.335,4.3331,4.3339,4.3369,4.3369,4.3424,4.3431,4.3452,4.3524,4.3538,4.3569,4.3525,4.3706,4.371,4.3713,4.3723,4.3728,4.3733,0,0,0,0,0,4.3134,4.3184,4.3186,4.3201,4.3289,4.3352,4.3364,4.3386,4.3371,4.3398,4.3428,4.343,4.3556,4.353,4.3546,4.3579,4.3704,4.3709,4.3713,4.372,4.3727,4.3733,0,0,0,0,0,0,4.3134,4.3191,4.3194,4.3261,4.3302,4.3353,4.3387,4.3392,4.3438,4.3435,4.3462,4.3474,4.354,4.3566,4.3536,4.3649,4.3629,4.3636,4.3629,4.3636,4.3641,4.3634,4.353,0,0,0,0,0,4.3142,4.3187,4.3235,4.329,4.331,4.3345,4.3373,4.3387,4.343,4.3447,4.3482,4.3525,4.3575,4.3606,4.3654,4.3726,4.374,4.3757,4.3762,4.3766,4.3773,4.3816,4.3824,4.3729,4.3729,4.3729,0,0,4.3159,4.3195,4.3222,4.3291,4.3324,4.3372,4.3359,4.341,4.3447,4.3455,4.352,4.3548,4.3597,4.3667,4.3699,4.3691,4.3803,4.3772,4.3775,4.378,4.3821,4.383,4.3838,4.3732,4.3732,4.3731,0,0,4.3214,4.3245,4.3295,4.3329,4.3378,4.3402,4.3414,4.3465,4.3483,4.3549,4.3557,4.3601,4.3685,4.3721,4.375,4.3821,4.3825,4.3836,4.3864,4.3905,4.3912,4.3919,4.3946,4.3955,4.3842,4.3842,4.3842,0,4.3228,4.33,4.3321,4.3372,4.3403,4.3413,4.3466,4.3497,4.356,4.3583,4.3572,4.3679,4.3713,4.3792,4.381,4.3832,4.3849,4.383,4.3909,4.3916,4.3923,4.3949,4.3959,4.3843,4.3843,4.3843,4.3843,0,4.3317,4.3366,4.3401,4.3461,4.3496,4.3548,4.3579,4.3612,4.3623,4.3648,4.3716,4.3757,4.3814,4.3834,4.3845,4.3916,4.3909,4.3904,4.3885,4.3933,4.3958,4.3968,4.3845,4.3844,4.3844,4.3844,0,0,4.3374,4.3446,4.3459,4.3487,4.3544,4.3583,4.3636,4.3692,4.3721,4.3765,4.3811,4.3883,4.3879,4.3912,4.3927,4.3963,4.4019,4.3953,4.3955,4.3965,4.4102,4.4107,4.4118,4.4022,4.4024,4.4025,4.4098,0,4.3437,4.353,4.3552,4.3633,4.368,4.3691,4.3737,4.3778,4.3803,4.3848,4.3876,4.3927,4.3917,4.3937,4.3973,4.4004,4.4047,4.3999,4.4067,4.4069,4.4055,4.4131,4.4136,4.4203,4.4108,4.411,4.4111,0,4.3522,4.3568,4.3653,4.3705,4.3726,4.3767,4.3821,4.3863,4.391,4.3926,4.3964,4.3976,4.4034,4.4011,4.4092,4.4059,4.4088,4.4108,4.4111,4.412,4.4094,4.4143,4.4224,4.4235,4.4126,4.4125,4.4124,0,4.3558,4.364,4.3703,4.3726,4.3788,4.3817,4.3844,4.389,4.3923,4.397,4.3992,4.4046,4.4076,4.4118,4.4145,4.4126,4.4225,4.4204,4.4241,4.424,4.4262,4.4261,4.4351,4.4278,4.4278,4.4278,4.4278,0,4.3626,4.3679,4.372,4.3758,4.3818,4.3843,4.3902,4.393,4.397,4.4016,4.4029,4.4071,4.4104,4.4152,4.4173,4.4238,4.4251,4.4267,4.4273,4.4267,4.4265,4.4287,4.4284,4.4281,4.428,4.428,4.4279,0,4.3676,4.3705,4.3775,4.3827,4.3842,4.3884,4.393,4.3969,4.3994,4.4052,4.4067,4.4108,4.4165,4.4196,4.4267,4.4282,4.4356,4.4358,4.4339,4.4342,4.4378,4.4375,4.4488,4.4505,4.4419,4.4419,4.442,0,4.3719,4.3759,4.3817,4.3847,4.3875,4.3925,4.3958,4.3986,4.402,4.4078,4.4111,4.4168,4.4216,4.4307,4.4344,4.4399,4.4404,4.4439,4.4412,4.4406,4.4407,4.4405,4.441,4.4445,4.4445,4.4446,4.4446,0,4.3792,4.3804,4.3852,4.3905,4.3944,4.3988,4.4031,4.4056,4.4091,4.4129,4.4188,4.4225,4.4298,4.4356,4.4415,4.4444,4.4452,4.4455,4.4467,4.4462,4.445,4.4459,4.4354,4.4452,4.4452,4.4451,4.4451,4.4451,4.384,4.3878,4.3924,4.3977,4.4012,4.4053,4.4092,4.4123,4.4172,4.4233,4.4247,4.4309,4.4357,4.4437,4.4468,4.4519,4.4512,4.4528,4.4533,4.4537,4.454,4.4441,4.4529,4.4529,4.4529,4.4529,4.4529,0,4.3916,4.3946,4.3994,4.4054,4.4097,4.4099,4.4147,4.4183,4.4237,4.4281,4.4328,4.4397,4.4453,4.4495,4.4553,4.4586,4.4591,4.46,4.4599,4.4606,4.4541,4.4526,4.4595,4.4595,4.4595,4.4595,4.4595,4.4595,4.396,4.4023,4.4042,4.4125,4.4155,4.4216,4.4243,4.4282,4.4317,4.4392,4.4439,4.4466,4.451,4.4572,4.4625,4.4636,4.4657,4.4667,4.4678,4.4617,4.461,4.4603,4.4589,4.4671,4.4671,4.4739,4.474,4.474]}]]